Jefferson, NC

7:26 PM EDT on April 30, 2017 (GMT -0400)
Ashe County

Weather History for KGEV - January, 2003

Change the Weather History Date:

Sunday, January 12, 2003

  Actual Average Record
Temperature  
Mean Temperature 22 °F -  
Max Temperature 33 °F 40 °F 70 °F (2013)
Min Temperature 12 °F 18 °F -5 °F (1988)
Degree Days  
Heating Degree Days 42    
Moisture  
Dew Point 2 °F    
Average Humidity 44    
Maximum Humidity 53    
Minimum Humidity 32    
Precipitation  
Precipitation 0.00 in - - ()
Sea Level Pressure  
Sea Level Pressure 30.20 in    
Wind  
Wind Speed 7 mph (NNW)    
Max Wind Speed 15 mph    
Max Gust Speed 28 mph    
Visibility 10 miles    
Events      
Averages and records for this station are not official NWS values.
T = Trace of Precipitation, MM = Missing Value Source: NWS Daily Summary

Daily Weather History Graph

Daily Weather History Graph

Search for Another Location

Airport or City:

Trip Planner

Search our weather history database for the weather conditions in past years. The results will help you decide how hot, cold, wet, or windy it might be!

Date:

Astronomy

Jan. 12, 2003 Rise Set
Actual Time 7:37 AM EST 5:30 PM EST
Civil Twilight 7:09 AM EST 5:58 PM EST
Nautical Twilight 6:37 AM EST 6:30 PM EST
Astronomical Twilight 6:06 AM EST 7:01 PM EST
Moon 1:10 PM EST (1/12) 2:13 AM EST (1/12)
Length of Visible Light 10h 49m
Length of Day
9h 53m
Waxing Gibbous, 70% of the Moon is Illuminated
Jan 12
Waxing Gibbous
Jan 18
Full
Jan 25
Last Quarter
Feb 1
New
Feb 9
First Quarter

Hourly Weather History & Observations

Time (EST) Temp. Windchill Dew Point Humidity Pressure Visibility Wind Dir Wind Speed Gust Speed Precip Events Conditions
12:00 AM 19.4 °F 8.6 °F 1.4 °F 46% 30.09 in 10.0 mi WNW 9.2 mph 16.1 mph N/A   Clear
12:20 AM 19.4 °F 11.5 °F 3.2 °F 49% 30.09 in 10.0 mi West 5.8 mph 25.3 mph N/A   Clear
12:40 AM 19.4 °F 11.5 °F 1.4 °F 46% 30.09 in 10.0 mi WNW 5.8 mph 20.7 mph N/A   Clear
1:00 AM 19.4 °F 9.5 °F 1.4 °F 46% 30.10 in 10.0 mi NW 8.1 mph - N/A   Clear
1:20 AM 17.6 °F 5.7 °F 1.4 °F 49% 30.11 in 10.0 mi NW 10.4 mph 20.7 mph N/A   Clear
1:40 AM 17.6 °F 3.2 °F 1.4 °F 49% 30.10 in 10.0 mi NW 15.0 mph - N/A   Clear
2:00 AM 17.6 °F 6.4 °F 1.4 °F 49% 30.12 in 10.0 mi WNW 9.2 mph 12.7 mph N/A   Clear
2:20 AM 17.6 °F 10.7 °F 1.4 °F 49% 30.13 in 10.0 mi NNW 4.6 mph - N/A   Clear
2:40 AM 17.6 °F 12.3 °F 1.4 °F 49% 30.15 in 10.0 mi North 3.5 mph - N/A   Clear
3:00 AM 15.8 °F 10.2 °F 1.4 °F 53% 30.15 in 10.0 mi North 3.5 mph - N/A   Clear
3:20 AM 15.8 °F 10.2 °F -0.4 °F 49% 30.16 in 10.0 mi NNW 3.5 mph 20.7 mph N/A   Clear
3:40 AM 15.8 °F 6.1 °F 1.4 °F 53% 30.15 in 10.0 mi NW 6.9 mph - N/A   Clear
4:00 AM 15.8 °F 3.4 °F 1.4 °F 53% 30.16 in 10.0 mi NW 10.4 mph 19.6 mph N/A   Clear
4:20 AM 15.8 °F 2.7 °F 1.4 °F 53% 30.16 in 10.0 mi WNW 11.5 mph 27.6 mph N/A   Clear
4:40 AM 14.0 °F -0.8 °F -0.4 °F 53% 30.16 in 10.0 mi NW 13.8 mph 26.5 mph N/A   Clear
5:00 AM 14.0 °F 3.9 °F -0.4 °F 53% 30.17 in 10.0 mi NW 6.9 mph - N/A   Clear
5:20 AM 12.2 °F -0.2 °F -2.2 °F 53% 30.17 in 10.0 mi WNW 9.2 mph 19.6 mph N/A   Clear
5:40 AM 12.2 °F 0.7 °F -2.2 °F 53% 30.18 in 10.0 mi NNW 8.1 mph - N/A   Clear
6:00 AM 12.2 °F 0.7 °F -2.2 °F 53% 30.18 in 10.0 mi NW 8.1 mph - N/A   Clear
6:20 AM 12.2 °F 1.7 °F -2.2 °F 53% 30.19 in 10.0 mi NNW 6.9 mph 19.6 mph N/A   Clear
6:40 AM 12.2 °F -0.2 °F -2.2 °F 53% 30.20 in 10.0 mi WNW 9.2 mph - N/A   Clear
7:00 AM 12.2 °F -3.7 °F -2.2 °F 53% 30.20 in 10.0 mi WNW 15.0 mph 21.9 mph N/A   Clear
7:20 AM 12.2 °F -3.1 °F -2.2 °F 53% 30.19 in 10.0 mi WNW 13.8 mph 18.4 mph N/A   Clear
7:40 AM 14.0 °F 1.2 °F -2.2 °F 49% 30.20 in 10.0 mi NW 10.4 mph 16.1 mph N/A   Clear
8:00 AM 14.0 °F 2.0 °F -2.2 °F 49% 30.20 in 10.0 mi NNW 9.2 mph 18.4 mph N/A   Clear
8:20 AM 14.0 °F 2.0 °F -2.2 °F 49% 30.21 in 10.0 mi NW 9.2 mph - N/A   Clear
8:42 AM 15.8 °F 10.2 °F -0.4 °F 49% 30.22 in 10.0 mi NNW 3.5 mph 17.3 mph N/A   Clear
9:00 AM 15.8 °F 6.1 °F -2.2 °F 45% 30.23 in 10.0 mi WNW 6.9 mph - N/A   Clear
9:20 AM 17.6 °F - -0.4 °F 45% 30.24 in 10.0 mi Calm Calm - N/A   Clear
9:40 AM 15.8 °F 5.1 °F -0.4 °F 49% 30.26 in 10.0 mi North 8.1 mph - N/A   Clear
10:00 AM 17.6 °F 9.3 °F 1.4 °F 49% 30.27 in 10.0 mi North 5.8 mph - N/A   Clear
10:20 AM 17.6 °F 7.3 °F -0.4 °F 45% 30.27 in 10.0 mi North 8.1 mph - N/A   Clear
10:40 AM 19.4 °F 11.5 °F -0.4 °F 42% 30.28 in 10.0 mi North 5.8 mph - N/A   Clear
11:00 AM 19.4 °F 11.5 °F -0.4 °F 42% 30.29 in 10.0 mi NNE 5.8 mph - N/A   Clear
11:20 AM 21.2 °F 14.9 °F -0.4 °F 39% 30.29 in 10.0 mi NNE 4.6 mph - N/A   Clear
11:40 AM 21.2 °F 14.9 °F 1.4 °F 42% 30.27 in 10.0 mi North 4.6 mph - N/A   Clear
12:00 PM 21.2 °F 13.6 °F -0.4 °F 39% 30.26 in 10.0 mi NNW 5.8 mph - N/A   Clear
12:20 PM 24.8 °F 15.3 °F 1.4 °F 36% 30.25 in 10.0 mi NNW 9.2 mph - N/A   Scattered Clouds
12:40 PM 24.8 °F 19.1 °F 1.4 °F 36% 30.23 in 10.0 mi North 4.6 mph - N/A   Clear
1:00 PM 26.6 °F 19.1 °F 3.2 °F 37% 30.22 in 10.0 mi North 6.9 mph - N/A   Clear
1:21 PM 28.4 °F 23.3 °F 3.2 °F 34% 30.21 in 10.0 mi North 4.6 mph - N/A   Clear
1:40 PM 30.2 °F 21.9 °F 5.0 °F 34% 30.20 in 10.0 mi North 9.2 mph - N/A   Clear
2:20 PM 32.0 °F 27.5 °F 6.8 °F 35% 30.20 in 10.0 mi NNE 4.6 mph - N/A   Clear
2:40 PM 32.0 °F 28.7 °F 6.8 °F 35% 30.20 in 10.0 mi North 3.5 mph - N/A   Clear
3:00 PM 32.0 °F 28.7 °F 6.8 °F 35% 30.20 in 10.0 mi North 3.5 mph - N/A   Clear
3:20 PM 33.8 °F 30.8 °F 6.8 °F 32% 30.20 in 10.0 mi NE 3.5 mph - N/A   Clear
3:40 PM 33.8 °F 30.8 °F 6.8 °F 32% 30.20 in 10.0 mi North 3.5 mph - N/A   Clear
4:00 PM 33.8 °F 29.6 °F 6.8 °F 32% 30.20 in 10.0 mi North 4.6 mph - N/A   Clear
4:20 PM 33.8 °F - 6.8 °F 32% 30.21 in 10.0 mi Calm Calm - N/A   Clear
4:40 PM 32.0 °F - 6.8 °F 35% 30.21 in 10.0 mi Calm Calm - N/A   Clear
5:00 PM 32.0 °F - 8.6 °F 38% 30.21 in 10.0 mi Calm Calm - N/A   Clear
5:20 PM 32.0 °F - 8.6 °F 38% 30.21 in 10.0 mi Calm Calm - N/A   Clear
5:40 PM 32.0 °F - 8.6 °F 38% 30.21 in 10.0 mi Calm Calm - N/A   Clear
6:00 PM 30.2 °F - 8.6 °F 40% 30.22 in 10.0 mi Calm Calm - N/A   Clear
6:20 PM 30.2 °F - 6.8 °F 37% 30.21 in 10.0 mi Calm Calm - N/A   Clear
6:41 PM 30.2 °F - 8.6 °F 40% 30.21 in 10.0 mi Calm Calm - N/A   Clear
7:00 PM 30.2 °F - 8.6 °F 40% 30.21 in 10.0 mi Calm Calm - N/A   Clear
7:20 PM 30.2 °F - 8.6 °F 40% 30.22 in 10.0 mi Calm Calm - N/A   Clear
7:40 PM 28.4 °F - 6.8 °F 40% 30.21 in 10.0 mi Calm Calm - N/A   Clear
8:00 PM 26.6 °F - 8.6 °F 47% 30.22 in 10.0 mi Calm Calm - N/A   Clear
8:20 PM 26.6 °F - 6.8 °F 43% 30.22 in 10.0 mi Calm Calm - N/A   Clear
8:40 PM 26.6 °F - 8.6 °F 47% 30.23 in 10.0 mi Calm Calm - N/A   Clear
9:00 PM 26.6 °F - 8.6 °F 47% 30.23 in 10.0 mi Calm Calm - N/A   Clear
9:20 PM 26.6 °F - 8.6 °F 47% 30.23 in 10.0 mi Calm Calm - N/A   Clear
9:40 PM 24.8 °F 17.9 °F 8.6 °F 50% 30.22 in 10.0 mi WNW 5.8 mph - N/A   Clear
10:00 PM 24.8 °F - 8.6 °F 50% 30.21 in 10.0 mi Calm Calm - N/A   Clear
10:20 PM 24.8 °F - 8.6 °F 50% 30.21 in 10.0 mi Calm Calm - N/A   Clear
10:40 PM 24.8 °F - 8.6 °F 50% 30.21 in 10.0 mi Calm Calm - N/A   Clear
11:00 PM 24.8 °F 20.5 °F 8.6 °F 50% 30.21 in 10.0 mi SW 3.5 mph - N/A   Clear
11:20 PM 24.8 °F - 8.6 °F 50% 30.20 in 10.0 mi Calm Calm - N/A   Clear
11:40 PM 23.0 °F - 8.6 °F 54% 30.19 in 10.0 mi Calm Calm - N/A   Clear